[[{"header":{"parameterUnit":"m.s-1","parameterCategory":1,"la1":30.2991,"la2":30.254,"lo1":-89.0895,"lo2":-89.0444,"dy":0.0017,"dx":0.0017,"nx":28,"ny":28,"refTime":"2026-01-10T03:00:00:Z","depth":0,"parameterNumber":2,"parameterNumberName":"U-component_of_WINDS"},"data":[0,0,0,0,0,0,0,0,0,0,0,0,0,0,0,0,0,0,0,0,0,0,0,0,0,0,0,0,0,0,0,0,0,0,0,0,0,0,0,0,0,0,0,0,0,0,0,0,0,0,0,0,0,0,0,0,0,0,-1.9047,-1.9048,0,-1.9147,-1.9148,-1.9149,-1.9105,-1.9103,-1.91,-1.9098,-1.9201,-1.9206,-1.9211,0,0,0,0,0,0,0,0,0,0,0,0,0,-1.8818,-1.8823,-1.9047,-1.9048,-1.905,-1.9147,-1.9148,-1.915,-1.9106,-1.9103,-1.91,-1.9097,-1.9199,-1.9205,-1.9212,0,0,0,0,0,0,0,0,0,0,0,0,0,-1.8918,-1.8824,-1.9047,-1.9039,-1.904,-1.9147,-1.9148,-1.915,-1.9106,-1.9102,-1.9099,-1.9095,-1.9198,-1.9205,-1.9212,-1.9333,0,0,-1.9235,-1.9239,0,0,0,0,0,0,0,0,-1.8912,-1.8926,-1.9039,-1.904,-1.9041,-1.911,-1.9105,-1.9212,-1.9107,-1.9081,-1.9098,-1.9093,-1.9174,-1.9183,-1.921,-1.9338,-1.9342,-1.9236,-1.9241,-1.9244,-1.9246,0,0,0,0,0,0,0,-1.8905,-1.8922,-1.9087,-1.9041,-1.9042,-1.9031,-1.9041,-1.9125,-1.9147,-1.9083,-1.908,-1.9092,-1.9173,-1.9203,-1.9212,-1.9344,-1.9236,-1.9243,-1.9247,-1.925,-1.9576,-1.958,0,0,0,0,0,0,-1.8899,-1.8916,-1.9084,-1.909,-1.8966,-1.9038,-1.9049,-1.9091,-1.9146,-1.9151,-1.9095,-1.909,-1.9192,-1.9203,-1.9216,-1.9362,-1.9244,-1.9251,-1.9255,-1.9572,-1.9577,-1.9581,0,0,0,0,0,0,-1.8894,-1.8914,-1.908,-1.9002,-1.9023,-1.9046,-1.9094,-1.9095,-1.9125,-1.9155,-1.9159,-1.9122,-1.9189,-1.9205,-1.9304,-1.9364,-1.9254,-1.9261,-1.9567,-1.9574,-1.9579,-1.9654,0,0,0,0,0,0,-1.8887,-1.8912,-1.8959,-1.9004,-1.9027,-1.9167,-1.9097,-1.91,-1.9138,-1.9131,-1.9181,-1.9185,-1.9188,-1.9293,-1.9312,-1.9373,-1.9267,-1.9562,-1.957,-1.9577,-1.9646,-1.9662,-1.9675,0,0,0,0,0,-1.8879,-1.8976,-1.8961,-1.8982,-1.9085,-1.917,-1.9184,-1.9184,-1.9143,-1.919,-1.9209,-1.9184,-1.9354,-1.9304,-1.9324,-1.9389,-1.9558,-1.9568,-1.9577,-1.964,-1.9659,-1.9675,0,0,0,0,0,0,-1.8938,-1.8982,-1.8966,-1.908,-1.9122,-1.9163,-1.9222,-1.9204,-1.9259,-1.9251,-1.9249,-1.926,-1.9364,-1.9385,-1.9328,-1.9508,-1.945,-1.9464,-1.9491,-1.9509,-1.9523,-1.9517,-1.9274,0,0,0,0,0,-1.8964,-1.903,-1.9064,-1.9161,-1.9183,-1.9199,-1.9236,-1.9232,-1.9276,-1.9294,-1.932,-1.9364,-1.9427,-1.9469,-1.9528,-1.9648,-1.9659,-1.9702,-1.9717,-1.9728,-1.9741,-1.9807,-1.9827,-1.9612,-1.9612,-1.9612,0,0,-1.9019,-1.9051,-1.9093,-1.9174,-1.9206,-1.9274,-1.9214,-1.9289,-1.934,-1.9305,-1.9401,-1.9422,-1.947,-1.958,-1.963,-1.9602,-1.9802,-1.974,-1.9749,-1.9756,-1.9818,-1.9839,-1.9857,-1.9618,-1.9617,-1.9616,0,0,-1.9154,-1.9184,-1.9269,-1.9302,-1.9351,-1.9361,-1.9381,-1.9425,-1.9437,-1.9533,-1.9509,-1.9568,-1.9677,-1.9713,-1.9745,-1.9892,-1.9872,-1.9911,-1.9988,-2.0052,-2.0069,-2.0084,-2.0138,-2.0157,-1.9924,-1.9924,-1.9924,0,-1.9217,-1.9319,-1.9315,-1.9392,-1.9429,-1.9399,-1.9485,-1.9517,-1.9584,-1.961,-1.9576,-1.9712,-1.9742,-1.9861,-1.9897,-1.9923,-1.9947,-1.9907,-2.0067,-2.0082,-2.0096,-2.0147,-2.0167,-1.9928,-1.9928,-1.9927,-1.9927,0,-1.9394,-1.9464,-1.9527,-1.9591,-1.9635,-1.9716,-1.9724,-1.9769,-1.9761,-1.9774,-1.9872,-1.9906,-1.9973,-2.0,-1.9993,-2.0118,-2.0099,-2.0066,-2.0008,-2.0121,-2.017,-2.0189,-1.9935,-1.9933,-1.9932,-1.9931,0,0,-1.9571,-1.9632,-1.9655,-1.9684,-1.9735,-1.979,-1.9869,-1.9934,-1.9972,-2.0018,-2.0085,-2.0177,-2.0147,-2.0184,-2.018,-2.0236,-2.0352,-2.0197,-2.0198,-2.0226,-2.0492,-2.0518,-2.0541,-2.0337,-2.034,-2.0343,-2.0489,0,-1.9712,-1.9851,-1.985,-1.9979,-2.0045,-2.0017,-2.0086,-2.0125,-2.0138,-2.0196,-2.0211,-2.0277,-2.0232,-2.0254,-2.0307,-2.0326,-2.0405,-2.0315,-2.04,-2.0403,-2.0392,-2.0566,-2.0593,-2.0729,-2.0507,-2.051,-2.0513,0,-1.9896,-1.9947,-2.0083,-2.0124,-2.0152,-2.0214,-2.0273,-2.0328,-2.0371,-2.0377,-2.0418,-2.0405,-2.0486,-2.0423,-2.0534,-2.0473,-2.0507,-2.0521,-2.0526,-2.0536,-2.0467,-2.0582,-2.0772,-2.0793,-2.0542,-2.054,-2.0538,0,-2.0014,-2.0117,-2.0212,-2.0237,-2.0287,-2.0332,-2.0355,-2.0394,-2.0433,-2.0484,-2.0509,-2.0569,-2.0603,-2.0649,-2.0653,-2.0607,-2.0765,-2.0703,-2.0774,-2.0774,-2.0811,-2.0809,-2.1011,-2.0829,-2.0829,-2.0828,-2.0828,0,-2.0173,-2.0257,-2.0266,-2.0325,-2.0418,-2.0415,-2.0508,-2.0527,-2.0562,-2.0623,-2.0602,-2.066,-2.066,-2.072,-2.0723,-2.0815,-2.083,-2.0838,-2.0838,-2.0841,-2.084,-2.0865,-2.0857,-2.0834,-2.0833,-2.0831,-2.0831,0,-2.0322,-2.0331,-2.0433,-2.0471,-2.0483,-2.0551,-2.0583,-2.0639,-2.065,-2.0728,-2.0746,-2.0764,-2.0833,-2.084,-2.092,-2.0922,-2.1034,-2.1023,-2.102,-2.1019,-2.109,-2.1084,-2.1317,-2.1348,-2.1144,-2.1146,-2.1148,0,-2.0424,-2.0489,-2.0534,-2.0573,-2.0599,-2.0663,-2.0702,-2.0701,-2.0743,-2.0796,-2.0845,-2.0912,-2.0965,-2.1076,-2.1096,-2.1157,-2.1149,-2.1226,-2.1158,-2.1159,-2.1152,-2.1149,-2.1156,-2.124,-2.1242,-2.1244,-2.1246,0,-2.0605,-2.0606,-2.0663,-2.0723,-2.077,-2.0817,-2.086,-2.0894,-2.0898,-2.0946,-2.1016,-2.1057,-2.1138,-2.1205,-2.1264,-2.1288,-2.1268,-2.1266,-2.1286,-2.1291,-2.1288,-2.1292,-2.1058,-2.1262,-2.126,-2.1259,-2.1258,-2.1257,-2.0735,-2.0791,-2.0832,-2.0897,-2.0929,-2.097,-2.1024,-2.1041,-2.11,-2.1166,-2.1161,-2.1238,-2.1279,-2.1357,-2.1384,-2.1445,-2.1419,-2.1448,-2.1455,-2.1463,-2.1471,-2.1276,-2.1455,-2.1455,-2.1454,-2.1454,-2.1454,0,-2.0916,-2.094,-2.1,-2.1062,-2.1112,-2.1088,-2.1134,-2.1179,-2.1247,-2.1286,-2.1339,-2.1419,-2.1483,-2.1507,-2.157,-2.1613,-2.1606,-2.163,-2.1628,-2.1634,-2.149,-2.1467,-2.1635,-2.1635,-2.1635,-2.1635,-2.1635,-2.1635,-2.1017,-2.1111,-2.1116,-2.1226,-2.1249,-2.1325,-2.1354,-2.1391,-2.1423,-2.1513,-2.1566,-2.1581,-2.1614,-2.1679,-2.1736,-2.1742,-2.1766,-2.1795,-2.1797,-2.1662,-2.1644,-2.1627,-2.1606,-2.18,-2.18,-2.1936,-2.1937,-2.1938]},{"header":{"parameterUnit":"m.s-1","parameterCategory":1,"la1":30.2991,"la2":30.254,"lo1":-89.0895,"lo2":-89.0444,"dy":0.0017,"dx":0.0017,"nx":28,"ny":28,"refTime":"2026-01-10T03:00:00:Z","depth":0,"parameterNumber":3,"parameterNumberName":"V-component_of_WINDS"},"data":[0,0,0,0,0,0,0,0,0,0,0,0,0,0,0,0,0,0,0,0,0,0,0,0,0,0,0,0,0,0,0,0,0,0,0,0,0,0,0,0,0,0,0,0,0,0,0,0,0,0,0,0,0,0,0,0,0,0,-6.6165,-6.6167,0,-6.6343,-6.6345,-6.6347,-6.6273,-6.6268,-6.6264,-6.626,-6.6437,-6.6446,-6.6454,0,0,0,0,0,0,0,0,0,0,0,0,0,-6.5756,-6.5764,-6.6165,-6.6167,-6.6169,-6.6342,-6.6345,-6.6347,-6.6273,-6.6268,-6.6263,-6.6258,-6.6434,-6.6445,-6.6455,0,0,0,0,0,0,0,0,0,0,0,0,0,-6.5934,-6.5767,-6.6164,-6.6153,-6.6154,-6.6342,-6.6345,-6.6348,-6.6274,-6.6268,-6.6262,-6.6256,-6.6431,-6.6444,-6.6457,-6.6664,0,0,-6.6496,-6.6502,0,0,0,0,0,0,0,0,-6.5924,-6.5949,-6.6153,-6.6154,-6.6156,-6.6279,-6.6266,-6.6454,-6.6276,-6.6229,-6.626,-6.6253,-6.6389,-6.6405,-6.6453,-6.6672,-6.668,-6.6497,-6.6505,-6.6511,-6.6515,0,0,0,0,0,0,0,-6.5912,-6.5941,-6.6235,-6.6156,-6.6158,-6.6138,-6.6156,-6.6301,-6.6342,-6.6232,-6.6227,-6.625,-6.6389,-6.644,-6.6456,-6.6682,-6.6497,-6.6509,-6.6517,-6.6522,-6.708,-6.7087,0,0,0,0,0,0,-6.59,-6.5931,-6.6229,-6.624,-6.6022,-6.615,-6.6171,-6.6246,-6.6341,-6.6349,-6.6255,-6.6246,-6.6421,-6.6441,-6.6462,-6.6711,-6.6511,-6.6523,-6.653,-6.7073,-6.7082,-6.7089,0,0,0,0,0,0,-6.5891,-6.5927,-6.6222,-6.6085,-6.6121,-6.6164,-6.6249,-6.6253,-6.6304,-6.6358,-6.6364,-6.63,-6.6417,-6.6444,-6.6615,-6.6716,-6.6529,-6.6541,-6.7065,-6.7076,-6.7085,-6.7211,0,0,0,0,0,0,-6.588,-6.5925,-6.6005,-6.6087,-6.6128,-6.6374,-6.6255,-6.6261,-6.6327,-6.6317,-6.6402,-6.641,-6.6414,-6.6596,-6.6627,-6.6731,-6.6551,-6.7056,-6.707,-6.7082,-6.7198,-6.7225,-6.7248,0,0,0,0,0,-6.5866,-6.6033,-6.601,-6.6046,-6.623,-6.638,-6.6403,-6.6406,-6.6336,-6.6416,-6.6451,-6.6407,-6.67,-6.6614,-6.6649,-6.6758,-6.7049,-6.7066,-6.7081,-6.7187,-6.722,-6.7247,0,0,0,0,0,0,-6.596,-6.6043,-6.6019,-6.6217,-6.6292,-6.6367,-6.6469,-6.644,-6.6535,-6.6521,-6.6519,-6.6539,-6.6715,-6.6753,-6.6656,-6.6963,-6.6864,-6.6887,-6.6932,-6.6964,-6.6988,-6.6975,-6.6562,0,0,0,0,0,-6.6005,-6.6121,-6.6186,-6.6355,-6.6394,-6.6425,-6.649,-6.6486,-6.6563,-6.6594,-6.664,-6.6715,-6.6824,-6.6895,-6.6998,-6.7203,-6.722,-6.7295,-6.732,-6.734,-6.736,-6.7471,-6.7505,-6.7141,-6.7141,-6.7141,0,0,-6.6097,-6.6156,-6.623,-6.6376,-6.6433,-6.6552,-6.6452,-6.6582,-6.667,-6.6613,-6.6778,-6.6814,-6.6897,-6.7086,-6.7171,-6.7123,-6.7464,-6.736,-6.7375,-6.7385,-6.7491,-6.7525,-6.7556,-6.7152,-6.715,-6.7148,0,0,-6.6326,-6.6383,-6.653,-6.659,-6.6679,-6.6698,-6.6734,-6.6813,-6.6836,-6.7001,-6.6961,-6.7064,-6.7251,-6.7312,-6.7368,-6.7619,-6.7582,-6.7652,-6.7781,-6.7889,-6.7918,-6.7943,-6.8033,-6.8065,-6.7672,-6.7673,-6.7673,0,-6.6429,-6.6609,-6.6609,-6.6743,-6.6808,-6.6763,-6.6911,-6.6968,-6.7085,-6.7131,-6.7075,-6.7309,-6.7362,-6.7564,-6.7625,-6.7671,-6.7711,-6.7643,-6.7914,-6.7939,-6.7963,-6.8049,-6.8082,-6.7681,-6.768,-6.7679,-6.7678,0,-6.6731,-6.6856,-6.6964,-6.708,-6.7157,-6.7297,-6.7317,-6.7394,-6.7383,-6.7408,-6.7576,-6.7637,-6.7752,-6.7799,-6.7789,-6.8,-6.7967,-6.7913,-6.7813,-6.8006,-6.8086,-6.8119,-6.7692,-6.7689,-6.7687,-6.7685,0,0,-6.7027,-6.7141,-6.7181,-6.7233,-6.7327,-6.7423,-6.756,-6.7673,-6.774,-6.7821,-6.7936,-6.8095,-6.8046,-6.8108,-6.8104,-6.8198,-6.8394,-6.8132,-6.8134,-6.8179,-6.863,-6.8671,-6.8709,-6.8369,-6.8376,-6.8381,-6.8623,0,-6.7263,-6.7507,-6.7511,-6.7733,-6.7848,-6.7806,-6.7925,-6.7995,-6.8021,-6.8121,-6.8149,-6.8262,-6.8188,-6.8226,-6.8317,-6.8351,-6.8484,-6.8333,-6.8475,-6.848,-6.8457,-6.8751,-6.8795,-6.9021,-6.8654,-6.866,-6.8663,0,-6.7573,-6.7667,-6.7901,-6.7979,-6.8027,-6.8135,-6.8239,-6.8335,-6.8412,-6.8424,-6.8495,-6.8476,-6.8614,-6.8509,-6.8699,-6.8596,-6.8654,-6.8679,-6.8687,-6.8702,-6.8584,-6.8774,-6.9093,-6.9127,-6.8713,-6.8709,-6.8705,0,-6.7766,-6.795,-6.8114,-6.816,-6.8254,-6.8331,-6.8373,-6.8444,-6.8512,-6.8602,-6.8646,-6.875,-6.8807,-6.8888,-6.8897,-6.8819,-6.9087,-6.8983,-6.9101,-6.9101,-6.916,-6.9157,-6.9494,-6.9196,-6.9196,-6.9195,-6.9194,0,-6.8031,-6.8176,-6.8202,-6.8304,-6.8464,-6.8466,-6.8625,-6.866,-6.8724,-6.883,-6.8799,-6.8898,-6.8904,-6.9006,-6.9013,-6.9169,-6.9195,-6.9208,-6.9208,-6.9212,-6.921,-6.925,-6.9235,-6.9204,-6.9202,-6.92,-6.9199,0,-6.8274,-6.8297,-6.8474,-6.8548,-6.857,-6.8686,-6.8749,-6.8844,-6.8867,-6.9002,-6.9033,-6.9069,-6.9187,-6.9204,-6.9341,-6.9346,-6.9534,-6.9517,-6.9509,-6.9506,-6.9623,-6.9612,-6.9999,-7.005,-6.9718,-6.9721,-6.9724,0,-6.8442,-6.8553,-6.864,-6.871,-6.8757,-6.8869,-6.8938,-6.8943,-6.9016,-6.9113,-6.9197,-6.9312,-6.9404,-6.9595,-6.9632,-6.9736,-6.9722,-6.9851,-6.9738,-6.9738,-6.9725,-6.9719,-6.973,-6.9873,-6.9877,-6.9879,-6.9882,0,-6.8738,-6.8744,-6.8846,-6.8953,-6.9037,-6.9121,-6.92,-6.9258,-6.9273,-6.9356,-6.9477,-6.9549,-6.969,-6.9805,-6.9909,-6.9949,-6.9919,-6.9917,-6.995,-6.9955,-6.9945,-6.9953,-6.9569,-6.9908,-6.9906,-6.9904,-6.9902,-6.9901,-6.895,-6.9046,-6.9123,-6.9237,-6.9297,-6.9372,-6.9465,-6.95,-6.9602,-6.9719,-6.9715,-6.9848,-6.9921,-7.0057,-7.0105,-7.0208,-7.0166,-7.0214,-7.0226,-7.0238,-7.025,-6.9928,-7.0227,-7.0226,-7.0225,-7.0225,-7.0224,0,-6.9245,-6.9292,-6.9397,-6.9509,-6.9599,-6.9563,-6.9647,-6.9725,-6.9843,-6.9914,-7.0007,-7.0145,-7.0256,-7.0301,-7.0409,-7.0483,-7.0471,-7.0511,-7.0506,-7.0516,-7.0281,-7.0242,-7.0519,-7.0519,-7.0519,-7.0519,-7.0519,-7.0519,-6.9409,-6.9571,-6.9586,-6.9776,-6.9821,-6.9953,-7.0005,-7.0073,-7.013,-7.0287,-7.0379,-7.0409,-7.0469,-7.0581,-7.068,-7.0691,-7.0732,-7.0779,-7.0783,-7.0562,-7.0533,-7.0504,-7.0468,-7.0787,-7.0788,-7.1009,-7.1011,-7.1013]}]]